Погода в Западной Двине

Россия / Тверская область     56°15′28″N   32°04′41″E
темп.,
°C
ветер,
м/с
пор.,
м/с
влажн.,
%
обл.,
%
осадки,
мм/ч
давл.,
гПа
погр.,
м
25 мая, ср
ср2500:00+4всв258582 0.0 1015103
03:00+3св119084 0.0 101613
06:00+4св118527 0.0 101785
09:00+10с12597 0.0 1016745
12:00+14сз35435 0.0 10151394
15:00+17сз46300 0.0 10141870
18:00+17сз353710 0.0 10131716
21:00+10св116358 0.0 101310
26 мая, чт
чт2600:00+10вюв2259100 0.0 101337
03:00+9юв236398 0.0 101166
06:00+9ююв2478100 0.0 100987
09:00+14ю3569100 0.0 1007389
12:00+13ююз4678100 0.2 1006474
15:00+11зюз41093100 1.8 1006807
18:00+9зсз2696100 3.3 1005375
21:00+8ююз239848 3.4 100570
27 мая, пт
пт2700:00+8юз289898 0.3 1003234
03:00+9зюз41098100 0.3 1003520
06:00+8з4990100 0.1 1004778
09:00+10зюз4992100 0.2 1004712
12:00+12зюз588266 0.9 10041006
15:00+17зюз6937100 1.2 10022739
18:00+14юз5964100 0.1 10011208
21:00+10юз4989100 0.3 1000632
28 мая, сб
сб2800:00+8юз269580 1.9 998220
03:00+7зюз5119480 1.9 998836
06:00+6зюз51192100 0.1 9991076
09:00+7юз51188100 0.3 10001169
12:00+8юз51078100 0.2 10011460
15:00+11юз5105775 0.4 10011811
18:00+9юз478331 0.5 1002779
21:00+7ююз399215 0.6 1003333
29 мая, вс
вс2900:00+5юз3109811 0.4 1004319
03:00+5ююз3109886 0.4 1005344
06:00+6юз41096100 0.0 1006436
09:00+7юз4994100 0.1 1007610
12:00+10юз4782100 0.3 1008882
15:00+13зюз5865100 1.3 10091442
18:00+14зюз586298 0.5 10101412
21:00+10юз399447 0.7 1012343